Location: Tel Aviv
(32.0670°N, 34.7670°E)
Time: 19:31:39
(UTC+03:00)

Vanguard 2 Rocket - Pass Details

Date: 26 January 2022
Orbit: 553 x 3323 km, 32.9° (Epoch: 24 May)

Event Time Altitude Azimuth Distance (km) Brightness Sun altitude
Exits shadow 04:30:20 37° 278° (W) 4,218 9.6 -27.1°
Maximum altitude 04:41:20 90° 192° (SSW) 3,324 9.5 -24.8°
Drops below altitude 10° 05:00:46 10° 102° (ESE) 5,729 12.2 -20.7°
Sets 05:04:38 0° 102° (ESE) 6,492 12.9 -19.9°
